Showing default

VSP ROSE, 59124

Orbit data source: Space-Track

VSP ROSE, 59124 is a payload satellite owned by Aerospacelab (BE) in SSO that was launched on Mon, 04 Mar 2024 UTC via an FALCON 9 launch vehicle from the Air Force Western Test Range (AFWTR). Payload-class satellites include a variety of spacecraft equipped with specific instruments for various scientific and technological missions. These include communications satellites like Starlink; space stations such as the ISS; scientific satellites like the Hubble; Earth observation satellites from companies like Planet Labs, Umbra, and HawkEye 360; GPS; miniature CubeSats for education and research; and military/defense satellites.

Loading next visibility...
Identifier
59124, 2024-043AC
Orbit
SSO
Country
Flag of BEBE / BEL
Related business
Manufacturer
Aerospacelab
Mission
Operational Commercial Imaging
Bus & Motor
AEROSP, Unknown motor
Mass
~200 kg wet, ~200 kg dry
Launch date (UTC)
2024-03-04 (2 years ago)
Launch vehicle
FALCON 9
Launch site
Air Force Western Test Range (AFWTR)
Object type
Payload
Rocket body
Debris
Shape & HBR
Box + 2 Pan, 1.0 m
Radar Cross Section
0.963 m², Large (>1 m²)

Expand to show TLE details & history
Last TLE update: 12 hours ago

TLE from 12 hours ago
0 VSP ROSE
1 59124U 24043AC  26196.18483477  .00002180  00000-0  80306-4 0  9992
2 59124  97.5651 333.0198 0011558 142.3123 217.8929 15.28899830131263
Epoch: 2026-07-15T04:26Z
TLE epoch observation values (Epoch: 2026-07-15T04:26:09.724Z)
Latitude
0.00006°
Longitude
-26.565°
Altitude
488.457 km
Speed
7.617 km/s
True Right ascension
22h 12m 04s
True Declination
0° 00' 00"
Sunlit
Object was in full shadow at epoch
Visualization orbit readout
Latitude
Unknown
Longitude
Unknown
Altitude
Unknown
Speed
Unknown
Apparent Right ascension
Unknown
Apparent Declination
Unknown
Sunlit
N/A
Visualization observer readout
Local Sidereal Time
04:45:12
Azimuth
Unknown
Elevation
Unknown
Doppler factor
Unknown
Orbital elements
Apogee altitude
483.983 km
Perigee altitude
468.139 km
Semi-major axis
6,854.198 km
Eccentricity
0.00116
Inclination
97.5651°
RAAN
333.0198°
Arg. of periapsis
142.3123°
True anomaly
217.81165°
Mean anomaly
217.8929°
Eccentric anomaly
217.85226°
Mean motion
3.8248 °/min
Orbital period
94.12 mins
BSTAR
0.000080306
Loading maneuver chart data...
Computing Atmospheric mass density...
Loading historical data...
Loading historical data...
Loading historical data...
Loading historical data...
Loading historical data...
Loading historical data...
Loading historical data...

Documentation

Showing up to 5 results
|